contact:dominique.lefevre@mio.osupytheas.fr, maurice.libes@osupytheas.fr, didier.mallarino@osupytheas.fr
Project:EMSO http://www.emso-fr.org/EMSO-France
Depth: 2436.0 m
Title:EMSO Ligure Ouest : Data MII capteur MICROCAT
DateTime_Computer,Latitude,Longitude,Temperature,Conductivity,Pressure,DateTime_Instrument
DateTime_Computer,Latitude,Longitude,degC,S m-1,dbar,DateTime_Instrument
2023-10-23T00:01:12Z,42.805,6.029,13.3034,4.60103,2470.871,2023-10-23T02:03:37Z
2023-10-23T00:04:15Z,42.805,6.029,13.3029,4.60102,2470.847,2023-10-23T02:06:40Z
2023-10-23T00:07:18Z,42.805,6.029,13.3032,4.60103,2470.88,2023-10-23T02:09:43Z
2023-10-23T00:10:21Z,42.805,6.029,13.3033,4.60104,2470.833,2023-10-23T02:12:46Z
2023-10-23T00:13:24Z,42.805,6.029,13.3033,4.60104,2470.833,2023-10-23T02:15:49Z
2023-10-23T00:16:27Z,42.805,6.029,13.3029,4.60104,2470.857,2023-10-23T02:18:52Z
2023-10-23T00:19:30Z,42.805,6.029,13.3034,4.60103,2470.833,2023-10-23T02:21:55Z
2023-10-23T00:22:33Z,42.805,6.029,13.3035,4.60104,2470.847,2023-10-23T02:24:58Z
2023-10-23T00:25:36Z,42.805,6.029,13.3031,4.60110,2470.88,2023-10-23T02:28:01Z
2023-10-23T00:28:39Z,42.805,6.029,13.3029,4.60106,2470.871,2023-10-23T02:31:05Z
2023-10-23T00:31:42Z,42.805,6.029,13.3031,4.60107,2470.847,2023-10-23T02:34:08Z
2023-10-23T00:34:45Z,42.805,6.029,13.3034,4.60109,2470.833,2023-10-23T02:37:11Z
2023-10-23T00:37:49Z,42.805,6.029,13.3035,4.60113,2470.81,2023-10-23T02:40:14Z
2023-10-23T00:40:52Z,42.805,6.029,13.3037,4.60106,2470.833,2023-10-23T02:43:17Z
2023-10-23T00:43:55Z,42.805,6.029,13.3032,4.60103,2470.833,2023-10-23T02:46:20Z
2023-10-23T00:46:58Z,42.805,6.029,13.3033,4.60105,2470.857,2023-10-23T02:49:23Z
2023-10-23T00:50:01Z,42.805,6.029,13.3031,4.60104,2470.833,2023-10-23T02:52:26Z
2023-10-23T00:53:04Z,42.805,6.029,13.3031,4.60106,2470.871,2023-10-23T02:55:29Z
2023-10-23T00:56:07Z,42.805,6.029,13.3034,4.60106,2470.857,2023-10-23T02:58:32Z
2023-10-23T00:59:10Z,42.805,6.029,13.3032,4.60110,2470.847,2023-10-23T03:01:35Z
2023-10-23T01:02:13Z,42.805,6.029,13.3033,4.60111,2470.857,2023-10-23T03:04:38Z
2023-10-23T01:05:16Z,42.805,6.029,13.3033,4.60107,2470.857,2023-10-23T03:07:42Z
2023-10-23T01:08:19Z,42.805,6.029,13.3031,4.60104,2470.88,2023-10-23T03:10:45Z
2023-10-23T01:11:23Z,42.805,6.029,13.3030,4.60105,2470.88,2023-10-23T03:13:48Z
2023-10-23T01:14:26Z,42.805,6.029,13.3029,4.60109,2470.833,2023-10-23T03:16:51Z
2023-10-23T01:17:29Z,42.805,6.029,13.3037,4.60113,2470.857,2023-10-23T03:19:54Z
2023-10-23T01:20:32Z,42.805,6.029,13.3034,4.60112,2470.88,2023-10-23T03:22:57Z
2023-10-23T01:23:35Z,42.805,6.029,13.3035,4.60103,2470.894,2023-10-23T03:26:00Z
2023-10-23T01:26:38Z,42.805,6.029,13.3030,4.60104,2470.857,2023-10-23T03:29:03Z
2023-10-23T01:29:41Z,42.805,6.029,13.3032,4.60104,2470.88,2023-10-23T03:32:06Z
2023-10-23T01:32:44Z,42.805,6.029,13.3035,4.60104,2470.857,2023-10-23T03:35:09Z
2023-10-23T01:35:47Z,42.805,6.029,13.3035,4.60104,2470.857,2023-10-23T03:38:12Z
2023-10-23T01:38:50Z,42.805,6.029,13.3033,4.60103,2470.88,2023-10-23T03:41:15Z
2023-10-23T01:41:53Z,42.805,6.029,13.3031,4.60105,2470.833,2023-10-23T03:44:19Z
2023-10-23T01:44:56Z,42.805,6.029,13.3031,4.60104,2470.88,2023-10-23T03:47:22Z
2023-10-23T01:47:59Z,42.805,6.029,13.3031,4.60103,2470.857,2023-10-23T03:50:25Z
2023-10-23T01:51:03Z,42.805,6.029,13.3034,4.60117,2470.871,2023-10-23T03:53:28Z
2023-10-23T01:54:06Z,42.805,6.029,13.3033,4.60103,2470.857,2023-10-23T03:56:31Z
2023-10-23T01:57:09Z,42.805,6.029,13.3034,4.60103,2470.857,2023-10-23T03:59:34Z
2023-10-23T02:00:12Z,42.805,6.029,13.3031,4.60102,2470.857,2023-10-23T04:02:37Z
2023-10-23T02:03:15Z,42.805,6.029,13.3034,4.60101,2470.894,2023-10-23T04:05:40Z
2023-10-23T02:06:18Z,42.805,6.029,13.3034,4.60103,2470.857,2023-10-23T04:08:43Z
2023-10-23T02:09:21Z,42.805,6.029,13.3032,4.60111,2470.857,2023-10-23T04:11:46Z
2023-10-23T02:12:24Z,42.805,6.029,13.3036,4.60102,2470.857,2023-10-23T04:14:49Z
2023-10-23T02:15:27Z,42.805,6.029,13.3032,4.60103,2470.88,2023-10-23T04:17:52Z
2023-10-23T02:18:30Z,42.805,6.029,13.3034,4.60104,2470.88,2023-10-23T04:20:56Z
2023-10-23T02:21:33Z,42.805,6.029,13.3032,4.60110,2470.857,2023-10-23T04:23:59Z
2023-10-23T02:24:37Z,42.805,6.029,13.3034,4.60103,2470.833,2023-10-23T04:27:02Z
2023-10-23T02:27:40Z,42.805,6.029,13.3034,4.60103,2470.88,2023-10-23T04:30:05Z
2023-10-23T02:30:43Z,42.805,6.029,13.3034,4.60104,2470.88,2023-10-23T04:33:08Z
2023-10-23T02:33:46Z,42.805,6.029,13.3033,4.60102,2470.88,2023-10-23T04:36:11Z
2023-10-23T02:36:49Z,42.805,6.029,13.3032,4.60103,2470.88,2023-10-23T04:39:14Z
2023-10-23T02:39:52Z,42.805,6.029,13.3033,4.60105,2470.843,2023-10-23T04:42:17Z
2023-10-23T02:42:55Z,42.805,6.029,13.3033,4.60106,2470.857,2023-10-23T04:45:20Z
2023-10-23T02:45:58Z,42.805,6.029,13.3029,4.60102,2470.894,2023-10-23T04:48:23Z
2023-10-23T02:49:01Z,42.805,6.029,13.3031,4.60102,2470.871,2023-10-23T04:51:26Z
2023-10-23T02:52:04Z,42.805,6.029,13.3033,4.60103,2470.833,2023-10-23T04:54:30Z
2023-10-23T02:55:07Z,42.805,6.029,13.3036,4.60110,2470.894,2023-10-23T04:57:33Z
2023-10-23T02:58:11Z,42.805,6.029,13.3036,4.60104,2470.857,2023-10-23T05:00:36Z
2023-10-23T03:01:14Z,42.805,6.029,13.3034,4.60104,2470.88,2023-10-23T05:03:39Z
2023-10-23T03:04:17Z,42.805,6.029,13.3035,4.60105,2470.833,2023-10-23T05:06:42Z
2023-10-23T03:07:20Z,42.805,6.029,13.3034,4.60103,2470.88,2023-10-23T05:09:45Z
2023-10-23T03:10:23Z,42.805,6.029,13.3035,4.60102,2470.894,2023-10-23T05:12:48Z
2023-10-23T03:13:26Z,42.805,6.029,13.3031,4.60108,2470.871,2023-10-23T05:15:51Z
2023-10-23T03:16:29Z,42.805,6.029,13.3031,4.60104,2470.847,2023-10-23T05:18:54Z
2023-10-23T03:19:32Z,42.805,6.029,13.3036,4.60103,2470.857,2023-10-23T05:21:57Z
2023-10-23T03:22:35Z,42.805,6.029,13.3033,4.60102,2470.88,2023-10-23T05:25:00Z
2023-10-23T03:25:38Z,42.805,6.029,13.3034,4.60102,2470.871,2023-10-23T05:28:03Z
2023-10-23T03:28:41Z,42.805,6.029,13.3033,4.60108,2470.871,2023-10-23T05:31:07Z
2023-10-23T03:31:44Z,42.805,6.029,13.3034,4.60103,2470.857,2023-10-23T05:34:10Z
2023-10-23T03:34:47Z,42.805,6.029,13.3032,4.60103,2470.847,2023-10-23T05:37:13Z
2023-10-23T03:37:51Z,42.805,6.029,13.3034,4.60103,2470.88,2023-10-23T05:40:16Z
2023-10-23T03:40:54Z,42.805,6.029,13.3031,4.60105,2470.871,2023-10-23T05:43:19Z
2023-10-23T03:43:57Z,42.805,6.029,13.3032,4.60102,2470.847,2023-10-23T05:46:22Z
2023-10-23T03:47:00Z,42.805,6.029,13.3033,4.60111,2470.88,2023-10-23T05:49:25Z
2023-10-23T03:50:03Z,42.805,6.029,13.3033,4.60104,2470.866,2023-10-23T05:52:28Z
2023-10-23T03:53:06Z,42.805,6.029,13.3032,4.60107,2470.857,2023-10-23T05:55:31Z
2023-10-23T03:56:09Z,42.805,6.029,13.3033,4.60104,2470.871,2023-10-23T05:58:34Z
2023-10-23T03:59:12Z,42.805,6.029,13.3036,4.60105,2470.857,2023-10-23T06:01:37Z
2023-10-23T04:02:15Z,42.805,6.029,13.3037,4.60106,2470.833,2023-10-23T06:04:40Z
2023-10-23T04:05:18Z,42.805,6.029,13.3033,4.60107,2470.857,2023-10-23T06:07:44Z
2023-10-23T04:08:21Z,42.805,6.029,13.3034,4.60103,2470.833,2023-10-23T06:10:47Z
2023-10-23T04:11:25Z,42.805,6.029,13.3035,4.60105,2470.857,2023-10-23T06:13:50Z
2023-10-23T04:14:28Z,42.805,6.029,13.3032,4.60110,2470.847,2023-10-23T06:16:53Z
2023-10-23T04:17:31Z,42.805,6.029,13.3031,4.60104,2470.833,2023-10-23T06:19:56Z
2023-10-23T04:20:34Z,42.805,6.029,13.3032,4.60104,2470.88,2023-10-23T06:22:59Z
2023-10-23T04:23:37Z,42.805,6.029,13.3032,4.60104,2470.857,2023-10-23T06:26:02Z
2023-10-23T04:26:40Z,42.805,6.029,13.3034,4.60104,2470.833,2023-10-23T06:29:05Z
2023-10-23T04:29:43Z,42.805,6.029,13.3034,4.60103,2470.857,2023-10-23T06:32:08Z
2023-10-23T04:32:46Z,42.805,6.029,13.3031,4.60105,2470.833,2023-10-23T06:35:11Z
2023-10-23T04:35:49Z,42.805,6.029,13.3034,4.60102,2470.857,2023-10-23T06:38:14Z
2023-10-23T04:38:52Z,42.805,6.029,13.3033,4.60105,2470.857,2023-10-23T06:41:17Z
2023-10-23T04:41:55Z,42.805,6.029,13.3031,4.60104,2470.88,2023-10-23T06:44:21Z
2023-10-23T04:44:58Z,42.805,6.029,13.3035,4.60102,2470.833,2023-10-23T06:47:24Z
2023-10-23T04:48:02Z,42.805,6.029,13.3032,4.60107,2470.833,2023-10-23T06:50:27Z
2023-10-23T04:51:05Z,42.805,6.029,13.3033,4.60105,2470.857,2023-10-23T06:53:30Z
2023-10-23T04:54:08Z,42.805,6.029,13.3036,4.60105,2470.847,2023-10-23T06:56:33Z
2023-10-23T04:57:11Z,42.805,6.029,13.3036,4.60103,2470.857,2023-10-23T06:59:36Z
2023-10-23T05:00:14Z,42.805,6.029,13.3036,4.60106,2470.81,2023-10-23T07:02:39Z
2023-10-23T05:03:17Z,42.805,6.029,13.3031,4.60102,2470.833,2023-10-23T07:05:42Z
2023-10-23T05:06:20Z,42.805,6.029,13.3035,4.60102,2470.833,2023-10-23T07:08:45Z
2023-10-23T05:09:23Z,42.805,6.029,13.3033,4.60105,2470.847,2023-10-23T07:11:48Z
2023-10-23T05:12:26Z,42.805,6.029,13.3034,4.60103,2470.833,2023-10-23T07:14:51Z
2023-10-23T05:15:29Z,42.805,6.029,13.3036,4.60104,2470.81,2023-10-23T07:17:54Z
2023-10-23T05:18:32Z,42.805,6.029,13.3032,4.60103,2470.81,2023-10-23T07:20:58Z
2023-10-23T05:21:35Z,42.805,6.029,13.3033,4.60102,2470.833,2023-10-23T07:24:01Z
2023-10-23T05:24:39Z,42.805,6.029,13.3032,4.60102,2470.857,2023-10-23T07:27:04Z
2023-10-23T05:27:42Z,42.805,6.029,13.3034,4.60102,2470.857,2023-10-23T07:30:07Z
2023-10-23T05:30:45Z,42.805,6.029,13.3034,4.60103,2470.847,2023-10-23T07:33:10Z
2023-10-23T05:33:48Z,42.805,6.029,13.3034,4.60107,2470.81,2023-10-23T07:36:13Z
2023-10-23T05:36:51Z,42.805,6.029,13.3034,4.60104,2470.857,2023-10-23T07:39:16Z
2023-10-23T05:39:54Z,42.805,6.029,13.3033,4.60102,2470.847,2023-10-23T07:42:19Z
2023-10-23T05:42:57Z,42.805,6.029,13.3031,4.60102,2470.871,2023-10-23T07:45:22Z
2023-10-23T05:46:00Z,42.805,6.029,13.3029,4.60102,2470.847,2023-10-23T07:48:25Z
2023-10-23T05:49:03Z,42.805,6.029,13.3029,4.60101,2470.847,2023-10-23T07:51:28Z
2023-10-23T05:52:06Z,42.805,6.029,13.3031,4.60104,2470.833,2023-10-23T07:54:31Z
2023-10-23T05:55:09Z,42.805,6.029,13.3032,4.60102,2470.843,2023-10-23T07:57:35Z
2023-10-23T05:58:12Z,42.805,6.029,13.3031,4.60102,2470.824,2023-10-23T08:00:38Z
2023-10-23T06:01:16Z,42.805,6.029,13.3032,4.60103,2470.787,2023-10-23T08:03:41Z
2023-10-23T06:04:19Z,42.805,6.029,13.3036,4.60102,2470.833,2023-10-23T08:06:44Z
2023-10-23T06:07:22Z,42.805,6.029,13.3033,4.60102,2470.857,2023-10-23T08:09:47Z
2023-10-23T06:10:25Z,42.805,6.029,13.3030,4.60104,2470.81,2023-10-23T08:12:50Z
2023-10-23T06:13:28Z,42.805,6.029,13.3032,4.60102,2470.833,2023-10-23T08:15:53Z
2023-10-23T06:16:31Z,42.805,6.029,13.3033,4.60103,2470.833,2023-10-23T08:18:56Z
2023-10-23T06:19:34Z,42.805,6.029,13.3032,4.60104,2470.857,2023-10-23T08:21:59Z
2023-10-23T06:22:37Z,42.805,6.029,13.3031,4.60102,2470.833,2023-10-23T08:25:02Z
2023-10-23T06:25:40Z,42.805,6.029,13.3030,4.60102,2470.871,2023-10-23T08:28:05Z
2023-10-23T06:28:43Z,42.805,6.029,13.3033,4.60102,2470.81,2023-10-23T08:31:09Z
2023-10-23T06:31:46Z,42.805,6.029,13.3031,4.60103,2470.847,2023-10-23T08:34:12Z
2023-10-23T06:34:49Z,42.805,6.029,13.3030,4.60102,2470.824,2023-10-23T08:37:15Z
2023-10-23T06:37:53Z,42.805,6.029,13.3035,4.60101,2470.857,2023-10-23T08:40:18Z
2023-10-23T06:40:56Z,42.805,6.029,13.3030,4.60103,2470.787,2023-10-23T08:43:21Z
2023-10-23T06:43:59Z,42.805,6.029,13.3030,4.60102,2470.81,2023-10-23T08:46:24Z
2023-10-23T06:47:02Z,42.805,6.029,13.3032,4.60104,2470.833,2023-10-23T08:49:27Z
2023-10-23T06:50:05Z,42.805,6.029,13.3031,4.60102,2470.88,2023-10-23T08:52:30Z
2023-10-23T06:53:08Z,42.805,6.029,13.3033,4.60102,2470.833,2023-10-23T08:55:33Z
2023-10-23T06:56:11Z,42.805,6.029,13.3031,4.60101,2470.833,2023-10-23T08:58:36Z
2023-10-23T06:59:14Z,42.805,6.029,13.3034,4.60101,2470.833,2023-10-23T09:01:39Z
2023-10-23T07:02:17Z,42.805,6.029,13.3031,4.60102,2470.81,2023-10-23T09:04:42Z
2023-10-23T07:05:20Z,42.805,6.029,13.3034,4.60102,2470.847,2023-10-23T09:07:45Z
2023-10-23T07:08:23Z,42.805,6.029,13.3030,4.60102,2470.824,2023-10-23T09:10:49Z
2023-10-23T07:11:26Z,42.805,6.029,13.3031,4.60102,2470.81,2023-10-23T09:13:52Z
2023-10-23T07:14:30Z,42.805,6.029,13.3033,4.60105,2470.833,2023-10-23T09:16:55Z
2023-10-23T07:17:33Z,42.805,6.029,13.3034,4.60102,2470.81,2023-10-23T09:19:58Z
2023-10-23T07:20:36Z,42.805,6.029,13.3032,4.60102,2470.8,2023-10-23T09:23:01Z
2023-10-23T07:23:39Z,42.805,6.029,13.3032,4.60102,2470.81,2023-10-23T09:26:04Z
2023-10-23T07:26:42Z,42.805,6.029,13.3031,4.60102,2470.847,2023-10-23T09:29:07Z
2023-10-23T07:29:45Z,42.805,6.029,13.3035,4.60102,2470.824,2023-10-23T09:32:10Z
2023-10-23T07:32:48Z,42.805,6.029,13.3034,4.60101,2470.847,2023-10-23T09:35:13Z
2023-10-23T07:35:51Z,42.805,6.029,13.3033,4.60105,2470.833,2023-10-23T09:38:16Z
2023-10-23T07:38:54Z,42.805,6.029,13.3031,4.60102,2470.833,2023-10-23T09:41:19Z
2023-10-23T07:41:57Z,42.805,6.029,13.3032,4.60101,2470.824,2023-10-23T09:44:23Z
2023-10-23T07:45:00Z,42.805,6.029,13.3031,4.60101,2470.8,2023-10-23T09:47:26Z
2023-10-23T07:48:03Z,42.805,6.029,13.3034,4.60102,2470.833,2023-10-23T09:50:29Z
2023-10-23T07:51:07Z,42.805,6.029,13.3033,4.60100,2470.824,2023-10-23T09:53:32Z
2023-10-23T07:54:10Z,42.805,6.029,13.3031,4.60103,2470.787,2023-10-23T09:56:35Z
2023-10-23T07:57:13Z,42.805,6.029,13.3029,4.60100,2470.81,2023-10-23T09:59:38Z
2023-10-23T08:00:16Z,42.805,6.029,13.3032,4.60102,2470.81,2023-10-23T10:02:41Z
2023-10-23T08:03:19Z,42.805,6.029,13.3033,4.60102,2470.833,2023-10-23T10:05:44Z
2023-10-23T08:06:22Z,42.805,6.029,13.3029,4.60102,2470.871,2023-10-23T10:08:47Z
2023-10-23T08:09:25Z,42.805,6.029,13.3036,4.60102,2470.81,2023-10-23T10:11:50Z
2023-10-23T08:12:28Z,42.805,6.029,13.3031,4.60101,2470.8,2023-10-23T10:14:53Z
2023-10-23T08:15:31Z,42.805,6.029,13.3035,4.60101,2470.824,2023-10-23T10:17:56Z
2023-10-23T08:18:34Z,42.805,6.029,13.3037,4.60105,2470.857,2023-10-23T10:20:59Z
2023-10-23T08:21:37Z,42.805,6.029,13.3029,4.60104,2470.81,2023-10-23T10:24:03Z
2023-10-23T08:24:40Z,42.805,6.029,13.3031,4.60100,2470.833,2023-10-23T10:27:06Z
2023-10-23T08:27:44Z,42.805,6.029,13.3031,4.60099,2470.833,2023-10-23T10:30:09Z
2023-10-23T08:30:48Z,42.805,6.029,13.3031,4.60101,2470.824,2023-10-23T10:33:13Z
2023-10-23T08:33:51Z,42.805,6.029,13.3034,4.60102,2470.81,2023-10-23T10:36:16Z
2023-10-23T08:36:54Z,42.805,6.029,13.3031,4.60101,2470.833,2023-10-23T10:39:19Z
2023-10-23T08:39:57Z,42.805,6.029,13.3032,4.60100,2470.824,2023-10-23T10:42:22Z
2023-10-23T08:43:00Z,42.805,6.029,13.3029,4.60104,2470.81,2023-10-23T10:45:25Z
2023-10-23T08:46:03Z,42.805,6.029,13.3031,4.60101,2470.857,2023-10-23T10:48:28Z
2023-10-23T08:49:06Z,42.805,6.029,13.3034,4.60102,2470.857,2023-10-23T10:51:31Z
2023-10-23T08:52:09Z,42.805,6.029,13.3031,4.60108,2470.833,2023-10-23T10:54:35Z
2023-10-23T08:55:12Z,42.805,6.029,13.3034,4.60101,2470.833,2023-10-23T10:57:38Z
2023-10-23T08:58:15Z,42.805,6.029,13.3031,4.60102,2470.833,2023-10-23T11:00:41Z
2023-10-23T09:01:19Z,42.805,6.029,13.3036,4.60108,2470.833,2023-10-23T11:03:44Z
2023-10-23T09:04:22Z,42.805,6.029,13.3032,4.60105,2470.833,2023-10-23T11:06:47Z
2023-10-23T09:07:25Z,42.805,6.029,13.3039,4.60102,2470.824,2023-10-23T11:09:50Z
2023-10-23T09:10:28Z,42.805,6.029,13.3029,4.60102,2470.81,2023-10-23T11:12:53Z
2023-10-23T09:13:31Z,42.805,6.029,13.3035,4.60102,2470.833,2023-10-23T11:15:56Z
2023-10-23T09:16:34Z,42.805,6.029,13.3030,4.60102,2470.847,2023-10-23T11:18:59Z
2023-10-23T09:19:37Z,42.805,6.029,13.3029,4.60102,2470.871,2023-10-23T11:22:02Z
2023-10-23T09:22:40Z,42.805,6.029,13.3029,4.60102,2470.857,2023-10-23T11:25:05Z
2023-10-23T09:25:43Z,42.805,6.029,13.3033,4.60105,2470.833,2023-10-23T11:28:08Z
2023-10-23T09:28:46Z,42.805,6.029,13.3031,4.60106,2470.833,2023-10-23T11:31:12Z
2023-10-23T09:31:49Z,42.805,6.029,13.3033,4.60108,2470.847,2023-10-23T11:34:15Z
2023-10-23T09:34:52Z,42.805,6.029,13.3030,4.60108,2470.857,2023-10-23T11:37:18Z
2023-10-23T09:37:56Z,42.805,6.029,13.3032,4.60102,2470.833,2023-10-23T11:40:21Z
2023-10-23T09:40:59Z,42.805,6.029,13.3032,4.60104,2470.833,2023-10-23T11:43:24Z
2023-10-23T09:44:02Z,42.805,6.029,13.3030,4.60104,2470.857,2023-10-23T11:46:27Z
2023-10-23T09:47:05Z,42.805,6.029,13.3031,4.60103,2470.857,2023-10-23T11:49:30Z
2023-10-23T09:50:08Z,42.805,6.029,13.3033,4.60102,2470.894,2023-10-23T11:52:33Z
2023-10-23T09:53:11Z,42.805,6.029,13.3031,4.60103,2470.871,2023-10-23T11:55:36Z
2023-10-23T09:56:14Z,42.805,6.029,13.3034,4.60103,2470.857,2023-10-23T11:58:39Z
2023-10-23T09:59:17Z,42.805,6.029,13.3036,4.60105,2470.88,2023-10-23T12:01:42Z
2023-10-23T10:02:20Z,42.805,6.029,13.3034,4.60106,2470.857,2023-10-23T12:04:45Z
2023-10-23T10:05:23Z,42.805,6.029,13.3034,4.60104,2470.857,2023-10-23T12:07:49Z
2023-10-23T10:08:26Z,42.805,6.029,13.3033,4.60105,2470.833,2023-10-23T12:10:52Z
2023-10-23T10:11:30Z,42.805,6.029,13.3034,4.60104,2470.88,2023-10-23T12:13:55Z
2023-10-23T10:14:33Z,42.805,6.029,13.3035,4.60104,2470.871,2023-10-23T12:16:58Z
2023-10-23T10:17:36Z,42.805,6.029,13.3036,4.60104,2470.894,2023-10-23T12:20:01Z
2023-10-23T10:20:39Z,42.805,6.029,13.3033,4.60105,2470.88,2023-10-23T12:23:04Z
2023-10-23T10:23:42Z,42.805,6.029,13.3038,4.60107,2470.894,2023-10-23T12:26:07Z
2023-10-23T10:26:45Z,42.805,6.029,13.3036,4.60105,2470.88,2023-10-23T12:29:10Z
2023-10-23T10:29:48Z,42.805,6.029,13.3033,4.60106,2470.857,2023-10-23T12:32:13Z
2023-10-23T10:32:51Z,42.805,6.029,13.3031,4.60107,2470.857,2023-10-23T12:35:16Z
2023-10-23T10:35:54Z,42.805,6.029,13.3035,4.60105,2470.88,2023-10-23T12:38:19Z
2023-10-23T10:38:57Z,42.805,6.029,13.3037,4.60105,2470.894,2023-10-23T12:41:23Z
2023-10-23T10:42:00Z,42.805,6.029,13.3033,4.60106,2470.857,2023-10-23T12:44:26Z
2023-10-23T10:45:03Z,42.805,6.029,13.3038,4.60110,2470.894,2023-10-23T12:47:29Z
2023-10-23T10:48:07Z,42.805,6.029,13.3036,4.60107,2470.904,2023-10-23T12:50:32Z
2023-10-23T10:51:10Z,42.805,6.029,13.3040,4.60106,2470.88,2023-10-23T12:53:35Z
2023-10-23T10:54:13Z,42.805,6.029,13.3036,4.60108,2470.88,2023-10-23T12:56:38Z
2023-10-23T10:57:16Z,42.805,6.029,13.3035,4.60109,2470.88,2023-10-23T12:59:41Z
2023-10-23T11:00:19Z,42.805,6.029,13.3036,4.60109,2470.88,2023-10-23T13:02:44Z
2023-10-23T11:03:22Z,42.805,6.029,13.3035,4.60107,2470.88,2023-10-23T13:05:47Z
2023-10-23T11:06:25Z,42.805,6.029,13.3034,4.60108,2470.88,2023-10-23T13:08:50Z
2023-10-23T11:09:28Z,42.805,6.029,13.3038,4.60112,2470.88,2023-10-23T13:11:53Z
2023-10-23T11:12:31Z,42.805,6.029,13.3036,4.60111,2470.894,2023-10-23T13:14:56Z
2023-10-23T11:15:34Z,42.805,6.029,13.3036,4.60108,2470.904,2023-10-23T13:18:00Z
2023-10-23T11:18:37Z,42.805,6.029,13.3036,4.60108,2470.88,2023-10-23T13:21:03Z
2023-10-23T11:21:40Z,42.805,6.029,13.3037,4.60108,2470.904,2023-10-23T13:24:06Z
2023-10-23T11:24:44Z,42.805,6.029,13.3041,4.60108,2470.904,2023-10-23T13:27:09Z
2023-10-23T11:27:47Z,42.805,6.029,13.3036,4.60108,2470.904,2023-10-23T13:30:12Z
2023-10-23T11:30:50Z,42.805,6.029,13.3038,4.60107,2470.917,2023-10-23T13:33:15Z
2023-10-23T11:33:53Z,42.805,6.029,13.3036,4.60108,2470.917,2023-10-23T13:36:18Z
2023-10-23T11:36:56Z,42.805,6.029,13.3041,4.60108,2470.88,2023-10-23T13:39:21Z
2023-10-23T11:39:59Z,42.805,6.029,13.3035,4.60108,2470.904,2023-10-23T13:42:24Z
2023-10-23T11:43:02Z,42.805,6.029,13.3038,4.60110,2470.894,2023-10-23T13:45:27Z
2023-10-23T11:46:05Z,42.805,6.029,13.3035,4.60109,2470.904,2023-10-23T13:48:30Z
2023-10-23T11:49:08Z,42.805,6.029,13.3041,4.60108,2470.904,2023-10-23T13:51:33Z
2023-10-23T11:52:11Z,42.805,6.029,13.3037,4.60108,2470.88,2023-10-23T13:54:37Z
2023-10-23T11:55:14Z,42.805,6.029,13.3036,4.60109,2470.94,2023-10-23T13:57:40Z
2023-10-23T11:58:18Z,42.805,6.029,13.3038,4.60109,2470.917,2023-10-23T14:00:43Z
2023-10-23T12:01:21Z,42.805,6.029,13.3036,4.60110,2470.917,2023-10-23T14:03:46Z
2023-10-23T12:04:24Z,42.805,6.029,13.3039,4.60109,2470.904,2023-10-23T14:06:49Z
2023-10-23T12:07:27Z,42.805,6.029,13.3038,4.60109,2470.927,2023-10-23T14:09:52Z
2023-10-23T12:10:30Z,42.805,6.029,13.3037,4.60110,2470.95,2023-10-23T14:12:55Z
2023-10-23T12:13:33Z,42.805,6.029,13.3040,4.60114,2470.904,2023-10-23T14:15:58Z
2023-10-23T12:16:36Z,42.805,6.029,13.3038,4.60108,2470.904,2023-10-23T14:19:01Z
2023-10-23T12:19:39Z,42.805,6.029,13.3042,4.60108,2470.94,2023-10-23T14:22:04Z
2023-10-23T12:22:42Z,42.805,6.029,13.3037,4.60109,2470.95,2023-10-23T14:25:07Z
2023-10-23T12:25:45Z,42.805,6.029,13.3039,4.60110,2470.917,2023-10-23T14:28:10Z
2023-10-23T12:28:48Z,42.805,6.029,13.3036,4.60107,2470.94,2023-10-23T14:31:14Z
2023-10-23T12:31:51Z,42.805,6.029,13.3038,4.60108,2470.927,2023-10-23T14:34:17Z
2023-10-23T12:34:54Z,42.805,6.029,13.3034,4.60109,2470.927,2023-10-23T14:37:20Z
2023-10-23T12:37:58Z,42.805,6.029,13.3037,4.60110,2470.95,2023-10-23T14:40:23Z
2023-10-23T12:41:01Z,42.805,6.029,13.3039,4.60110,2470.904,2023-10-23T14:43:26Z
2023-10-23T12:44:04Z,42.805,6.029,13.3038,4.60110,2470.927,2023-10-23T14:46:29Z
2023-10-23T12:47:07Z,42.805,6.029,13.3036,4.60110,2470.964,2023-10-23T14:49:32Z
2023-10-23T12:50:10Z,42.805,6.029,13.3037,4.60116,2470.927,2023-10-23T14:52:35Z
2023-10-23T12:53:13Z,42.805,6.029,13.3039,4.60110,2470.964,2023-10-23T14:55:38Z
2023-10-23T12:56:16Z,42.805,6.029,13.3041,4.60109,2470.95,2023-10-23T14:58:41Z
2023-10-23T12:59:19Z,42.805,6.029,13.3036,4.60111,2470.95,2023-10-23T15:01:44Z
2023-10-23T13:02:22Z,42.805,6.029,13.3040,4.60109,2470.927,2023-10-23T15:04:48Z
2023-10-23T13:05:25Z,42.805,6.029,13.3039,4.60108,2470.95,2023-10-23T15:07:51Z
2023-10-23T13:08:28Z,42.805,6.029,13.3037,4.60109,2470.973,2023-10-23T15:10:54Z
2023-10-23T13:11:32Z,42.805,6.029,13.3038,4.60111,2470.95,2023-10-23T15:13:57Z
2023-10-23T13:14:35Z,42.805,6.029,13.3036,4.60114,2470.95,2023-10-23T15:17:00Z
2023-10-23T13:17:38Z,42.805,6.029,13.3038,4.60110,2470.95,2023-10-23T15:20:03Z
2023-10-23T13:20:41Z,42.805,6.029,13.3039,4.60110,2470.94,2023-10-23T15:23:06Z
2023-10-23T13:23:44Z,42.805,6.029,13.3039,4.60115,2470.95,2023-10-23T15:26:09Z
2023-10-23T13:26:47Z,42.805,6.029,13.3039,4.60110,2470.973,2023-10-23T15:29:12Z
2023-10-23T13:29:50Z,42.805,6.029,13.3039,4.60110,2470.964,2023-10-23T15:32:15Z
2023-10-23T13:32:53Z,42.805,6.029,13.3034,4.60111,2470.95,2023-10-23T15:35:18Z
2023-10-23T13:35:56Z,42.805,6.029,13.3036,4.60110,2470.964,2023-10-23T15:38:21Z
2023-10-23T13:38:59Z,42.805,6.029,13.3038,4.60115,2470.95,2023-10-23T15:41:25Z
2023-10-23T13:42:02Z,42.805,6.029,13.3036,4.60110,2470.964,2023-10-23T15:44:28Z
2023-10-23T13:45:05Z,42.805,6.029,13.3039,4.60110,2470.95,2023-10-23T15:47:31Z
2023-10-23T13:48:09Z,42.805,6.029,13.3039,4.60115,2470.973,2023-10-23T15:50:34Z
2023-10-23T13:51:12Z,42.805,6.029,13.3039,4.60110,2470.95,2023-10-23T15:53:37Z
2023-10-23T13:54:15Z,42.805,6.029,13.3039,4.60110,2470.973,2023-10-23T15:56:40Z
2023-10-23T13:57:18Z,42.805,6.029,13.3038,4.60110,2470.973,2023-10-23T15:59:43Z
2023-10-23T14:00:21Z,42.805,6.029,13.3036,4.60110,2470.95,2023-10-23T16:02:46Z
2023-10-23T14:03:24Z,42.805,6.029,13.3042,4.60113,2470.964,2023-10-23T16:05:49Z
2023-10-23T14:06:27Z,42.805,6.029,13.3041,4.60110,2470.95,2023-10-23T16:08:52Z
2023-10-23T14:09:30Z,42.805,6.029,13.3036,4.60110,2470.973,2023-10-23T16:11:55Z
2023-10-23T14:12:33Z,42.805,6.029,13.3042,4.60110,2470.95,2023-10-23T16:14:59Z
2023-10-23T14:15:36Z,42.805,6.029,13.3040,4.60110,2470.959,2023-10-23T16:18:02Z
2023-10-23T14:18:39Z,42.805,6.029,13.3039,4.60111,2470.95,2023-10-23T16:21:05Z
2023-10-23T14:21:43Z,42.805,6.029,13.3041,4.60114,2470.95,2023-10-23T16:24:08Z
2023-10-23T14:24:46Z,42.805,6.029,13.3040,4.60110,2470.95,2023-10-23T16:27:11Z
2023-10-23T14:27:49Z,42.805,6.029,13.3036,4.60110,2470.973,2023-10-23T16:30:14Z
2023-10-23T14:30:51Z,42.805,6.029,13.3036,4.60110,2470.95,2023-10-23T16:33:16Z
2023-10-23T14:33:54Z,42.805,6.029,13.3034,4.60111,2470.973,2023-10-23T16:36:19Z
2023-10-23T14:36:57Z,42.805,6.029,13.3039,4.60118,2470.927,2023-10-23T16:39:22Z
2023-10-23T14:40:00Z,42.805,6.029,13.3039,4.60112,2470.973,2023-10-23T16:42:25Z
2023-10-23T14:43:03Z,42.805,6.029,13.3038,4.60111,2471.01,2023-10-23T16:45:28Z
2023-10-23T14:46:06Z,42.805,6.029,13.3039,4.60111,2470.95,2023-10-23T16:48:31Z
2023-10-23T14:49:09Z,42.805,6.029,13.3037,4.60110,2470.987,2023-10-23T16:51:34Z
2023-10-23T14:52:12Z,42.805,6.029,13.3039,4.60112,2471.01,2023-10-23T16:54:37Z
2023-10-23T14:55:15Z,42.805,6.029,13.3036,4.60110,2470.997,2023-10-23T16:57:40Z
2023-10-23T14:58:18Z,42.805,6.029,13.3041,4.60110,2470.973,2023-10-23T17:00:44Z
2023-10-23T15:01:21Z,42.805,6.029,13.3038,4.60113,2470.95,2023-10-23T17:03:47Z